Погода в Кодском

Россия / Курганская область     56°23′12″N   64°52′36″E
темп.,
°C
ветер,
м/с
пор.,
м/с
влажн.,
%
обл.,
%
осадки,
мм/ч
давл.,
гПа
погр.,
м
14 мая, пт
пт1423:00+18в22615 0.0 102513
02:00+16юв22679 0.0 102511
05:00+15ююв11735 0.0 102611
08:00+20ююз23545 0.0 1026287
11:00+26юз453853 0.0 10251065
14:00+28зюз56295 0.0 10242731
17:00+29зюз57265 0.0 10232891
20:00+24юз47435 0.0 1022107
15 мая, сб
сб1523:00+22юз4104373 0.0 1021204
02:00+18зюз345351 0.0 102160
05:00+16зюз34555 0.0 102255
08:00+21з3548100 0.0 1022243
11:00+27з57339 0.0 10211518
14:00+29з682747 0.0 10192461
17:00+30зюз692771 0.0 10183003
20:00+24з49433 0.0 1017147
16 мая, вс
вс1623:00+21з411505 0.1 1017190
02:00+19з4105951 0.0 1017171
05:00+18з386728 0.0 1018151
08:00+23з595278 0.0 1018415
11:00+29з712285 0.0 10171637
14:00+31зсз7102233 0.0 10172838
17:00+31зсз682317 0.0 10173496
20:00+25з343595 0.0 101745
17 мая, пн
пн1723:00+21з45385 0.0 101767
02:00+19зсз364422 0.0 101773
05:00+18з34515 0.0 101847
08:00+24з59425 0.0 1018339
11:00+29з68292 0.0 10172721
14:00+31зюз79235 0.0 10163540
17:00+31зюз6102444 0.0 10143502
20:00+24з41036100 0.0 1014163
18 мая, вт
вт1823:00+20з484150 0.0 1014125
02:00+18з495039 0.0 1014152
05:00+17зсз355968 0.0 101471
08:00+22сз4750100 0.0 1015399
11:00+26сз58345 0.0 10142556
14:00+27сз582996 0.0 10132860
17:00+26ссз683095 0.0 10131940
20:00+21ссв354439 0.0 101474